Погода в Шенкурске

Россия / Архангельская область     62°06′20″N   42°53′58″E
В апреле 2022 года жителям России запретили посещать сайт meteo.paraplan.net по решению Генеральной прокуратуры. Аудитория сайта уменьшилась в 10 раз. Владельцы сайта не видят смысла в поддержке погодного сервера в таких условиях. Сайт будет закрыт в октябре.
темп.,
°C
ветер,
м/с
пор.,
м/с
влажн.,
%
обл.,
%
осадки,
мм/ч
давл.,
гПа
погр.,
м
3 октября, пн
пн300:00+6с3893100 0.0 1008409
03:00+6ссз379499 0.0 1010330
06:00+5с279598 0.0 1011304
09:00+6св3690100 0.0 1013284
12:00+8всв4682100 0.0 1014609
15:00+8всв4886100 0.1 1014555
18:00+7всв41094100 1.1 1014537
21:00+7в51295100 2.4 1013530
4 октября, вт
вт400:00+8в41195100 0.1 1012448
03:00+9вюв31097100 0.1 1012402
06:00+10ю4109584 0.0 1013434
09:00+11ю399012 0.0 1014606
12:00+13ю48725 0.0 1015853
15:00+14ююв48738 0.0 10161066
18:00+10юв3990100 0.0 1016250
21:00+10ююв4128645 0.0 1017497
5 октября, ср
ср500:00+9ююв3109319 0.0 1016306
03:00+9юв399388 0.0 1016280
06:00+8юв3109656 0.1 1015327
09:00+9юв41087100 0.1 1014650
12:00+11ююв388299 0.1 1014636
15:00+11ююв478397 0.3 1013764
18:00+9юв399194 0.1 1013390
21:00+9вюв2795100 0.8 1012353
6 октября, чт
чт600:00+9вюв2595100 0.1 1011229
03:00+9в2497100 1.4 1010271
06:00+8ююв129773 0.8 101058
09:00+9ю239191 0.8 1010198
12:00+10ююз248487 0.0 1010352
15:00+11ююз257840 0.2 1008739
18:00+9ю388995 0.2 1007372
21:00+7ю5129099 0.2 1005601
7 октября, пт
пт700:00+7ю61389100 0.6 1002735
03:00+7ююз51195100 4.4 1000768
06:00+7юз399476 0.1 999427
09:00+9юз4108897 0.3 999861
12:00+9зюз4108494 0.3 1000821
15:00+10з51077100 0.5 10001088
18:00+9з41288100 1.6 1002712
21:00+8з4118899 1.7 1004626